Location: Jou
(42.5990°N, 1.1140°E)
Time: 00:13:32
(UTC+00:00)

Daily predictions for brighter satellites

Satellite Brightness Start Highest point End
(mag) Time Altitude Azimuth Time Altitude Azimuth Time Altitude Azimuth
Cosmos 2219 Rocket 4.4 02:55:06 19° NE 02:55:06 19° NE 02:56:50 10° NE
USA 267 3.8 03:15:34 10° NE 03:20:18 51° NE 03:20:18 51° NE
Cosmos 2333 Rocket 4.3 03:39:30 17° N 03:39:30 17° N 03:40:49 10° NNE
COSMOS 2455 4.3 03:45:06 26° N 03:45:06 26° N 03:47:52 10° NNE
ACS3 Solar Sail 3.1 03:45:12 10° N 03:47:53 28° N 03:47:53 28° N
Cosmos 2360 Rocket 3.9 03:59:09 21° N 03:59:09 21° N 04:01:09 10° N
Cosmos 2322 Rocket 4.0 03:59:31 19° N 03:59:31 19° N 04:01:17 10° N
USA 234 3.3 03:50:56 10° ESE 03:57:26 73° NE 03:58:53 55° NNW
Gbstr 26 Del rocket 3.8 03:59:16 58° E 03:59:16 58° E 04:03:53 10° ENE
SL-16 R/B 4.4 04:06:02 12° N 04:06:02 12° N 04:06:36 10° N
Meteor 2-14 Rocket 4.5 04:03:49 10° S 04:09:54 77° E 04:16:00 10° N
Cosmos 1943 Rocket 3.8 04:06:17 10° N 04:11:06 30° NE 04:15:54 10° ESE
ARGOS 3.2 04:11:32 10° N 04:16:17 63° NNW 04:16:17 63° NNW
PAYLOAD A 4.0 04:12:22 10° NNE 04:17:48 87° ESE 04:20:29 30° SSW
Cosmos 1140 Rocket 4.2 04:15:56 18° N 04:19:31 50° ENE 04:24:27 10° SE
Cosmos 1809 Rocket 4.3 04:15:43 10° S 04:21:49 82° W 04:27:57 10° N
CZ-2C R/B 2.5 04:17:16 10° N 04:21:32 61° NNW 04:21:32 61° NNW
ADEOS Rocket 4.0 04:21:23 10° N 04:25:40 32° NW 04:25:40 32° NW
NOSS 3-1 (C) 2.7 04:27:25 74° WNW 04:27:32 75° NW 04:33:00 10° NNE
Cosmos 2100 Rocket 3.9 04:27:36 10° N 04:33:47 88° E 04:39:58 10° S
Cosmos 2219 Rocket 3.2 04:36:50 29° NNW 04:36:50 29° NNW 04:40:40 10° N
NOSS 0 Rocket 4.2 04:35:43 10° SSW 04:41:48 70° ESE 04:47:56 10° NNE
IRS-1D 4.0 04:37:25 10° NNE 04:42:19 58° E 04:47:09 10° S
COSMOS 2428 2.6 04:41:30 22° SW 04:45:16 72° WNW 04:50:59 10° NNE
USA 59 Rocket 1.1 04:50:48 20° N 04:50:48 20° N 04:51:59 10° NNE
Cosmos 2322 3.8 04:50:01 29° SW 04:52:47 55° WNW 04:58:22 10° NNE
SL-08 RB Rocket 4.1 04:49:30 10° N 04:53:29 40° WNW 04:53:29 40° WNW
Cosmos 1459 Rocket 3.9 04:48:40 10° NNW 04:55:01 72° W 05:01:17 10° S
Cosmos 1864 Rocket 4.5 04:49:36 10° N 04:55:55 88° E 05:02:15 10° S
COSMO-SKYMED 1 3.6 04:53:27 10° SE 04:57:20 42° ENE 05:01:15 10° N
Meteor 2-21 4.4 04:51:30 10° SSW 04:57:30 59° WNW 05:03:30 10° N
SKYMED 2 4.0 04:54:18 10° SSE 04:58:35 64° ENE 05:02:54 10° N
FengYun 1-2 T 4.1 04:53:21 10° N 04:58:54 78° WNW 05:04:29 10° SSW
Cosmos 1727 Rocket 4.3 04:54:20 10° SW 05:00:06 41° WNW 05:05:58 10° N
Cosmos 407 Rocket 3.9 04:56:25 10° NNW 05:01:29 61° ENE 05:06:31 10° SSE
Cosmos 1023 Rocket 4.4 04:58:46 17° NNW 05:02:36 62° WSW 05:07:33 10° S
USA 267 4.1 04:58:51 10° NE 05:04:36 34° NNW 05:07:38 23° WNW
Cosmos 1980 3.9 04:59:26 10° SSW 05:05:03 75° ESE 05:10:43 10° NNE
Cosmos 1725 Rocket 4.0 04:59:07 10° N 05:05:28 87° W 05:11:47 10° S
NOSS 3-1 (A) 2.8 05:07:06 10° SW 05:11:40 83° NW 05:17:10 10° NE
Cosmos 1802 Rocket 4.0 05:07:01 10° NNW 05:13:21 69° W 05:19:33 10° S
Cosmos 1269 Rocket 4.2 05:09:27 15° NW 05:13:37 46° WSW 05:18:38 10° S
Cosmos 1328 4.0 05:11:07 10° SSW 05:14:31 38° WNW 05:17:57 10° N
Cosmos 1703 Rocket 3.6 05:11:37 10° SSW 05:15:51 52° W 05:20:09 10° N
Cosmos 921 Rocket 4.2 05:16:56 23° WSW 05:16:56 23° WSW 05:20:00 10° SSW
Cosmos 2233 Rocket 4.2 05:10:20 10° N 05:16:41 79° E 05:22:57 10° S
Cosmos 2278 Rocket 2.1 05:12:49 10° NNW 05:18:30 86° WSW 05:24:09 10° SSE
NOSS 2-1 (E) 3.9 05:18:52 27° NW 05:18:56 27° NW 05:21:42 10° NNE
Meteor 2-16 Rocket 4.4 05:14:04 10° SSW 05:20:05 65° W 05:26:11 10° N
Cosmos 2251 Rocket 4.4 05:15:06 10° N 05:20:19 50° ENE 05:25:31 10° SE
CZ-3 R/B 3.7 05:11:07 10° SW 05:20:54 24° S 05:25:39 10° SE
Cosmos 2237 Rocket 2.2 05:15:39 10° SSW 05:21:19 87° WNW 05:27:01 10° NNE
Cosmos 1939 Rocket 3.7 05:19:47 10° NNW 05:23:00 25° WNW 05:23:42 24° W
Cosmos 2173 Rocket 4.3 05:18:37 10° NNW 05:24:10 38° W 05:29:43 10° SSW
Cosmos 2292 Rocket 3.6 05:22:18 10° SSW 05:26:17 62° W 05:31:28 10° N
SL-08 R/B 4.4 05:21:27 10° NNW 05:27:33 73° W 05:33:41 10° S
BlueWalker 3 1.9 05:27:40 23° WNW 05:29:44 59° SW 05:33:16 10° SE
USA 276 2.1 05:29:39 29° W 05:30:36 46° SW 05:33:19 10° SE
Meteor 1-24 Rocket 4.0 05:25:25 10° SW 05:30:56 43° WNW 05:36:17 10° N
Helios 1A Rocket 2.6 05:28:29 10° S 05:31:47 49° W 05:35:05 10° NNW
ACS3 Solar Sail 3.6 05:31:27 10° NW 05:32:01 11° NW 05:32:01 11° NW
Cosmos 2369 Rocket 4.4 05:31:35 10° N 05:35:51 21° NE 05:40:07 10° E
CZ-4 R/B 4.1 05:32:57 10° N 05:37:37 46° WNW 05:42:10 10° SW
Cosmos 1782 Rocket 3.5 05:35:23 10° NNW 05:39:43 60° W 05:43:59 10° S
USA 234 4.0 05:34:56 10° S 05:40:45 34° SW 05:46:14 11° WNW
Cosmos 2123 Rocket 4.4 05:35:56 10° SW 05:41:38 37° WNW 05:47:20 10° N
Meteor 2-5 Rocket 4.2 05:36:35 10° SW 05:42:06 40° WNW 05:47:37 10° N
Cosmos 1420 Rocket 4.0 05:38:13 10° SSW 05:43:28 81° WNW 05:48:47 10° NNE
Gbstr 26 Del rocket 4.2 05:41:19 14° W 05:45:18 40° NNW 05:51:07 10° NE
NOAA 12 4.4 05:41:51 10° N 05:46:55 46° WNW 05:51:59 10° SW
Cosmos 44 Rocket 4.2 05:43:41 11° NW 05:47:57 32° WSW 05:52:27 10° S
ARIANE 5 R/B 4.5 05:47:53 10° NNE 05:52:28 34° E 05:57:05 10° SSE
Cosmos 1943 Rocket 2.6 05:49:45 10° NW 05:54:53 40° WSW 05:59:59 10° S
Cosmos 2016 Rocket 4.5 05:49:41 10° NNW 05:55:30 38° W 06:01:16 10° SSW
Cosmos 1812 3.0 05:55:45 10° N 05:58:37 48° E 06:01:27 10° SSE
Cosmos 1300 Rocket 4.3 05:56:16 10° NNW 06:00:06 31° W 06:03:53 10° SSW
Cosmos 2346 Rocket 4.5 05:54:08 10° SSW 06:00:15 66° W 06:06:22 10° N
SMAP 4.1 05:56:45 10° NNE 06:01:19 52° E 06:05:50 10° S
CZ-2D R/B 4.5 06:00:54 10° NNE 06:03:54 38° E 06:06:52 10° S
